Regional Weather Roundup
Issued by NWS Newport/Morehead, NC

Current Version | Previous Version | Graphics & Text | Print | Product List | Glossary Off
Versions: 1 2 3 4 5 6 7 8 9 10 11 12 13 14 15 16 17 18 19 20 21 22 23 24 25 26 27 28 29 30 31 32 33 34 35 36 37 38 39 40 41 42 43 44 45 46 47 48 49 50

000
ASUS42 KMHX 311110
RWRMHX
WEATHER ROUNDUP FOR EASTERN NORTH CAROLINA
NATIONAL WEATHER SERVICE NEWPORT/MOREHEAD CITY NC
600 AM EST SAT JAN 31 2015

NOTE: "FAIR" INDICATES FEW OR NO CLOUDS BELOW 12,000 FEET
WITH NO SIGNIFICANT WEATHER AND/OR OBSTRUCTIONS TO VISIBILITY

NCZ015>017-031-032-045>047-102-103-311200-
NORTH COAST

CITY           SKY/WX    TMP DP  RH WIND       PRES   REMARKS
EDENTON        CLEAR     27  14  59 NW7       30.30R
ELIZABETH CITY CLEAR     24   9  52 NW9       30.29R
KITTY HAWK     SUNNY     27   8  44 NW14G25   30.25R WCI  16
MANTEO         CLEAR     27   9  46 NW20G28   30.26S WCI  13

$$

NCZ045>047-081-094-103-104-311200-
CENTRAL COAST

CITY           SKY/WX    TMP DP  RH WIND       PRES   REMARKS
FRISCO         CLEAR     30  14  51 NW14G29   30.26R WCI  19
SWANQUARTER    NOT AVBL

$$

NCZ095-097-098-100-101-311200-
SOUTHERN COAST

CITY           SKY/WX    TMP DP  RH WIND       PRES   REMARKS
BEAUFORT       CLEAR     29  13  51 N16G23    30.30S WCI  17
CEDAR ISLAND   NOT AVBL
JACKSONVILLE   CLEAR     27  12  53 NW9       30.31S
PINEY ISLAND     N/A    N/A N/A N/A MISG      30.30R
WILMINGTON     CLEAR     29  10  45 N7        30.32S


$$

NCZ011>013-027>030-043-044-078>080-089-090>093-098-311200-
COASTAL PLAIN

CITY           SKY/WX    TMP DP  RH WIND       PRES   REMARKS
AHOSKIE        CLEAR     24  10  55 CALM      30.33R
CLINTON        CLEAR     28  13  53 N5        30.33S
ELIZABETHTOWN  CLEAR     27  13  55 CALM      30.32S
GOLDSBORO      CLEAR     32  12  43 NW9       30.28R
GREENVILLE     CLEAR     28  12  50 NW5       30.33R
HAVELOCK       CLEAR     28  12  51 NW12      30.31F WCI  18
KENANSVILLE    CLEAR     26  12  55 CALM      30.33S
KINSTON        NOT AVBL
NEW BERN       CLEAR     28  13  53 NW7       30.32F
RICHLANDS      CLEAR     27  10  50 NW3       30.32S
ROCKY MOUNT    CLEAR     27  11  51 NW9       30.33R
WASHINGTON     CLEAR     26  13  58 NW3       30.32R
WHITEVILLE     CLEAR     28  12  50 CALM      30.34R

$$

AMZ130-135-150-152-154-156-158-170-250-252-270-ANZ085-086-088-633-658-670-311200-
MARINE OBSERVATIONS

STATION/POSITION TIME  TEMP    WIND        PRES    WAVE   SWELL
                       AIR SEA DIR/SP/G            HT/PER HT/PER
                 (UTC) (F)     (DEG/KT/KT) (MB)    (FT/S) (FT/S)
CHESAPEAKE LIGHT 1000   25     320/ 33/ 36 1024.0
64 E VA BEACH    1100   30 48  320/ 29/ 37 1021.3   11/ 8
DUCK             1100   27 41  330/ 29/ 36 1023.2
2 E DUCK         1100      42                N/A     7/ 8   2/11
10 NE DUCK       1000      44                N/A     9/ 7
OREGON INLET     1100   28 39  310/ 20/ 26 1024.2
13E OREGON INLT  1100      45                N/A    10/ 7   2/11
HATTERAS CG      1100   32 40  330/ 24/ 29 1024.9
DIAMOND BUOY     1100   36 63  330/ 25/ 31 1023.4    8/ 6   3/ 9
17 S OCRACOKE    NOT AVBL
CAPE LOOKOUT     1000   32     340/ 21/ 25 1025.4
BEAUFORT LAB     1100   31 46  340/ 12/ 19 1024.7
27 SE WRIGHTSVLE NOT AVBL
5 SE WRIGHTSVLE  1000   35 51  350/ 21/ 25 1026.0
225 S CAPE HAT   0957   54 71  330/ 21/ 29 1021.5   13/ 9
41 SE CHARLESTON 1100   47 67   10/ 21/ 25 1025.6    7/ 7   2/10

$$



USA.gov is the U.S. government's official web portal to all federal, state and local government web resources and services.